Observations for Trim Market St
| Time | AQI | Temp °C | Hum % | Pres Pa | CO μg/m³ | H₂S μg/m³ | NO μg/m³ | NO₂ μg/m³ | O₃ μg/m³ | SO₂ μg/m³ | PM1 μg/m³ | PM2.5 μg/m³ | PM10 μg/m³ |
|---|---|---|---|---|---|---|---|---|---|---|---|---|---|
| Wednesday 26 August 2026 | |||||||||||||
| 00:18 | 2 | 16.5 | 84 | 2,147,483,647 | 0.31 | 0 | 1.64 | 16.97 | 31.65 | 0 | 3.56 | 6.1 | 9.7 |
| 00:17 | 2 | 16.5 | 84 | 2,147,483,647 | 0.3 | 0 | 1.64 | 13.15 | 29.05 | 0 | 5.7 | 6.57 | 10.24 |
| 00:16 | 2 | 16.5 | 84 | 2,147,483,647 | 0.3 | 0 | 1.7 | 19.26 | 36.89 | 0 | 5.7 | 7.03 | 10.78 |
| 00:15 | 2 | 16.5 | 84 | 2,147,483,647 | 0.32 | 0 | 1.53 | 25.31 | 45.73 | 0 | 6.41 | 7.5 | 11.86 |
| 00:14 | 2 | 16.5 | 84 | 2,147,483,647 | 0.31 | 0 | 1.61 | 20.26 | 40.51 | 0 | 6.41 | 7.97 | 11.87 |
| 00:13 | 2 | 16.5 | 84 | 2,147,483,647 | 0.31 | 0 | 1.76 | 16.63 | 35.01 | 0 | 6.41 | 7.5 | 12.95 |
| 00:12 | 2 | 16.5 | 84 | 2,147,483,647 | 0.3 | 0 | 1.55 | 15.39 | 35.34 | 0 | 6.41 | 7.04 | 10.78 |
| 00:11 | 2 | 16.5 | 84 | 2,147,483,647 | 0.32 | 0 | 1.3 | 14.06 | 25.41 | 0 | 5.7 | 7.04 | 10.78 |
| 00:10 | 2 | 16.5 | 84 | 2,147,483,647 | 0.39 | 0 | 1.42 | 29.6 | 46.94 | 0 | 7.13 | 8.43 | 12.41 |
| 00:09 | 2 | 16.5 | 84 | 2,147,483,647 | 0.32 | 0 | 1.51 | 17.31 | 28.42 | 0 | 5.7 | 7.5 | 11.32 |
| 00:08 | 2 | 16.6 | 84 | 2,147,483,647 | 0.29 | 0 | 1.41 | 14.91 | 35.31 | 0 | 6.41 | 7.5 | 11.32 |
| 00:07 | 2 | 16.6 | 84 | 2,147,483,647 | 0.3 | 0 | 1.48 | 18.76 | 36.8 | 0 | 3.56 | 5.64 | 9.7 |
| 00:06 | 2 | 16.6 | 84 | 2,147,483,647 | 0.3 | 0 | 1.64 | 15.58 | 35.05 | 0 | 6.41 | 7.5 | 11.87 |
| 00:05 | 2 | 16.6 | 84 | 2,147,483,647 | 0.3 | 0 | 1.71 | 13.26 | 42.03 | 0 | 7.84 | 9.37 | 14.04 |
| 00:03 | 2 | 16.6 | 84 | 2,147,483,647 | 0.32 | 0 | 1.45 | 21.93 | 38.71 | 0 | 5.7 | 6.11 | 10.24 |
| 00:02 | 2 | 16.6 | 84 | 2,147,483,647 | 0.31 | 0 | 1.45 | 20.95 | 39.1 | 0 | 6.41 | 7.04 | 10.79 |
| 00:01 | 2 | 16.6 | 84 | 2,147,483,647 | 0.31 | 0 | 1.45 | 15.38 | 35.61 | 0 | 7.84 | 8.62 | 11.33 |
| 00:00 | 2 | 16.6 | 84 | 2,147,483,647 | 0.28 | 0 | 1.37 | 17.77 | 33.75 | 0 | 6.41 | 7.04 | 11.33 |
| Tuesday 25 August 2026 | |||||||||||||
| 23:59 | 2 | 16.6 | 84 | 2,147,483,647 | 0.29 | 0 | 1.45 | 14.47 | 34.14 | 0 | 6.41 | 8.44 | 12.96 |
| 23:58 | 2 | 16.6 | 84 | 2,147,483,647 | 0.29 | 0 | 1.34 | 15.83 | 39.38 | 0 | 5.7 | 7.51 | 12.41 |